Lid_Strength_Index
1 1 1 1 1 1 1 0 2 1 1 1 1 1 2 2 1 0 0 0 1 0 0 0 1 1 2 2 2 3 3 2 3 2 0 0 0 1 0 -1 -0 -0 0
1 1 1 1 1 1 1 1 0 0 0 0 0 1 2 1 1 1 1 0 1 2 1 0 1 2 1 1 2 2 2 1 2 2 2 2 2 1 0 -0 0 1 0
1 1 1 1 1 1 1 1 0 0 0 0 0 1 1 2 1 0 0 1 1 1 2 1 1 1 1 1 2 3 3 3 2 3 3 3 3 1 1 0 0 0 1
1 1 1 1 1 1 1 1 1 1 1 1 0 0 0 0 0 0 1 1 1 1 1 1 1 1 1 1 2 2 3 3 3 4 3 3 2 1 2 2 2 1 2
1 1 1 1 0 0 0 1 1 1 1 1 1 1 0 0 1 1 0 0 1 1 1 0 1 1 2 1 2 1 1 2 3 3 3 2 2 2 2 2 3 2 1
1 1 1 1 0 1 0 1 1 1 1 1 1 1 1 1 4 5 1 1 1 1 1 1 0 2 2 4 4 3 1 2 2 2 2 2 1 2 2 2 3 3 4
1 1 1 1 1 1 0 1 1 1 1 1 1 1 1 1 6 7 6 1 1 1 1 1 1 0 2 1 5 6 5 6 4 1 1 1 1 2 1 2 2 3 3
1 1 1 1 1 1 1 1 1 0 1 1 1 1 1 1 6 7 7 1 1 1 1 1 1 1 1 1 1 2 2 3 3 2 -0 -0 0 1 1 1 2 2 3
3 1 1 1 1 1 1 1 1 1 1 1 1 1 1 1 7 9 7 2 1 1 1 1 2 2 5 8 2 3 2 2 5 6 5 6 7 7 5 3 4 4 3
1 1 1 1 1 1 1 1 1 1 1 1 1 1 2 1 7 9 7 1 2 2 2 1 5 3 8 9 2 2 3 2 2 3 4 6 6 6 8 3 3 4 4
1 1 0 1 1 0 0 0 1 1 1 1 1 1 1 1 1 10 10 1 2 2 2 2 2 8 10 11 7 2 3 2 4 2 2 3 3 2 4 4 3 3 4
1 1 1 1 1 0 1 1 1 2 3 2 2 2 1 1 8 9 11 9 4 1 2 2 3 9 10 10 10 7 9 6 1 3 2 3 3 4 4 3 3 3 3
1 1 1 1 1 0 0 1 2 3 3 4 2 3 2 4 5 9 11 12 10 4 1 3 7 9 9 10 10 9 9 3 3 4 4 4 4 4 4 4 3 3 3
2 1 1 1 1 1 1 1 2 3 3 4 5 4 4 5 6 6 6 5 9 7 7 6 6 7 7 5 8 8 5 4 5 5 4 5 6 6 5 5 5 5 5
2 1 1 1 1 1 2 2 2 3 5 5 5 5 6 4 8 11 9 7 6 7 8 8 8 7 7 7 6 7 6 6 6 7 7 8 8 7 7 6 6 6 7
2 2 2 1 1 2 2 2 7 8 9 10 10 9 8 10 11 11 11 11 10 10 7 8 8 8 8 8 9 9 8 9 8 8 8 8 8 9 8 9 7 7 7
2 1 2 2 2 2 2 2 3 5 9 10 10 10 11 12 12 12 11 11 12 8 6 7 8 8 9 9 9 9 9 9 8 9 9 9 9 10 10 9 9 8 8
1 3 2 1 2 2 2 2 2 3 3 4 8 9 10 10 11 11 10 9 5 6 5 6 7 7 7 8 8 9 9 8 9 9 9 9 10 9 10 10 9 9 9
1 1 1 1 1 2 2 2 2 2 3 5 5 7 8 9 9 10 9 5 6 7 7 7 6 5 6 6 7 7 7 8 9 9 9 9 9 9 8 9 9 12 12
1 5 3 1 1 2 2 2 2 2 3 4 5 6 5 7 6 6 6 6 7 8 8 8 7 7 6 5 5 5 5 6 6 7 8 8 8 8 8 9 8 9 9
1 1 6 2 2 2 2 2 2 3 4 4 5 6 10 5 6 6 5 5 6 6 6 6 6 6 5 5 5 5 5 5 6 6 7 8 8 9 8 9 9 9 9
1 1 2 2 2 2 2 2 2 3 4 3 5 6 10 5 5 4 5 5 6 6 6 6 7 6 6 6 6 5 6 6 6 6 8 9 9 9 9 10 10 9 9
2 1 1 2 1 4 2 2 3 4 4 3 4 5 5 5 6 6 6 6 6 5 5 6 6 6 6 5 6 6 6 7 7 8 9 10 10 9 9 10 10 10 9
3 2 2 2 2 2 3 3 4 5 4 4 4 5 5 6 6 7 7 6 5 5 6 5 5 6 6 5 7 8 8 8 10 11 11 11 10 10 10 9 9 9 9
2 3 2 2 2 3 4 4 4 4 4 4 5 5 6 7 8 8 7 5 5 6 6 6 6 6 6 6 6 7 11 14 12 13 12 11 11 10 10 9 9 9 9
3 3 2 2 3 3 4 4 4 5 6 6 6 7 8 8 7 7 6 6 6 6 6 6 6 6 6 7 9 12 13 13 9 14 9 8 9 9 9 9 9 9 9